TimeHST,TemperatureF,Dew PointF,Humidity,Sea Level PressureIn,VisibilityMPH,Wind Direction,Wind SpeedMPH,Gust SpeedMPH,PrecipitationIn,Events,Conditions,WindDirDegrees,DateUTC
12:54 AM,63.0,55.9,78,30.06,10.0,SSE,5.8,-,N/A,,Clear,150,2012-12-23 10:54:00
1:54 AM,61.0,55.9,83,30.04,10.0,SE,8.1,-,N/A,,Clear,140,2012-12-23 11:54:00
2:54 AM,60.1,55.0,83,30.03,10.0,SE,6.9,-,N/A,,Clear,140,2012-12-23 12:54:00
3:54 AM,57.9,53.1,84,30.03,10.0,SSE,4.6,-,N/A,,Clear,150,2012-12-23 13:54:00
4:54 AM,59.0,53.1,81,30.03,10.0,SSE,6.9,-,N/A,,Clear,150,2012-12-23 14:54:00
5:54 AM,55.9,52.0,87,30.04,10.0,South,4.6,-,N/A,,Clear,190,2012-12-23 15:54:00
6:54 AM,57.9,53.1,84,30.05,10.0,SE,8.1,-,N/A,,Partly Cloudy,130,2012-12-23 16:54:00
7:54 AM,64.0,55.9,75,30.06,10.0,Calm,Calm,-,N/A,,Partly Cloudy,0,2012-12-23 17:54:00
8:54 AM,72.0,62.1,71,30.08,10.0,Calm,Calm,-,N/A,,Scattered Clouds,0,2012-12-23 18:54:00
9:54 AM,75.9,61.0,60,30.06,10.0,NW,4.6,-,N/A,,Scattered Clouds,320,2012-12-23 19:54:00
10:54 AM,78.1,61.0,56,30.04,10.0,West,4.6,-,N/A,,Scattered Clouds,260,2012-12-23 20:54:00
11:54 AM,81.0,57.9,45,30.01,10.0,North,5.8,-,N/A,,Scattered Clouds,350,2012-12-23 21:54:00
12:54 PM,79.0,59.0,50,29.97,10.0,NE,9.2,-,N/A,,Scattered Clouds,50,2012-12-23 22:54:00
1:54 PM,80.1,59.0,48,29.95,10.0,East,9.2,-,N/A,,Scattered Clouds,90,2012-12-23 23:54:00
2:54 PM,81.0,57.0,44,29.95,10.0,NNE,6.9,-,0.01,,Scattered Clouds,30,2012-12-24 00:54:00
3:54 PM,79.0,61.0,54,29.95,10.0,ENE,10.4,-,N/A,,Scattered Clouds,70,2012-12-24 01:54:00
4:54 PM,75.9,62.1,62,29.96,10.0,ENE,6.9,-,N/A,,Clear,60,2012-12-24 02:54:00
5:54 PM,73.0,62.1,68,29.98,10.0,ENE,6.9,-,N/A,,Scattered Clouds,60,2012-12-24 03:54:00
6:54 PM,72.0,61.0,68,29.99,10.0,Calm,Calm,-,N/A,,Clear,0,2012-12-24 04:54:00
7:54 PM,69.1,62.1,78,30.01,10.0,Calm,Calm,-,N/A,,Clear,0,2012-12-24 05:54:00
8:54 PM,68.0,62.1,81,30.02,10.0,SE,5.8,-,N/A,,Clear,130,2012-12-24 06:54:00
9:54 PM,64.9,60.1,84,30.02,10.0,SE,4.6,-,N/A,,Clear,130,2012-12-24 07:54:00
10:54 PM,63.0,57.0,81,30.02,10.0,Calm,Calm,-,N/A,,Clear,0,2012-12-24 08:54:00
11:54 PM,69.1,60.1,73,30.01,10.0,Calm,Calm,-,N/A,,Clear,0,2012-12-24 09:54:00